Location: Unspecified
(0.0000°N, 0.0000°E)
Time: 08:43:44
(UTC+00:00)

Transit 4A - Pass Details

Date: 07 October 2023
Orbit: 864 x 979 km, 66.8° (Epoch: 05 December)

Event Time Altitude Azimuth Distance (km) Brightness Sun altitude
Rises 07:41:35 0° 193° (SSW) 3,542 10.9 28.3°
Reaches altitude 10° 07:44:06 10° 189° (S) 2,616 10.3 28.9°
Maximum altitude 07:50:07 61° 109° (ESE) 1,055 9.4 30.4°
Drops below altitude 10° 07:56:17 10° 30° (NNE) 2,682 10.7 31.9°
Sets 07:58:53 0° 27° (NNE) 3,638 11.2 32.6°
